Temp
66 65 65 65 66 65 66 66 66 63 62 61 59 58 57 56 53 54 53 54 54 53
65 65 65 67 66 66 65 61 60 61 61 59 59 57 55 53 53 52 53 53 54 53
67 67 67 65 63 62 62 62 60 59 59 58 57 56 53 52 52 52 52 53 52 52
63 64 64 63 62 61 60 61 60 60 59 57 55 53 52 52 52 52 52 52 52 52
63 63 63 62 60 59 59 59 59 58 58 56 54 54 54 53 53 52 51 51 49 49
62 62 62 60 59 59 58 58 58 57 56 55 55 54 53 52 51 50 50 49 48 48
62 62 61 60 58 57 59 58 57 57 56 55 53 53 53 51 49 48 49 48 47 46
63 62 58 57 57 57 58 58 58 56 54 52 52 52 49 48 47 47 46 46 46 45
61 58 57 56 56 55 54 53 54 53 52 50 50 43 43 45 45 45 44 43 43 43
58 57 56 55 54 53 52 51 51 51 50 49 48 41 41 40 44 42 42 40 41 42
56 56 53 53 53 50 51 52 51 50 49 47 46 42 40 38 41 40 39 39 39 39
56 52 52 51 50 52 51 50 49 49 47 46 46 40 38 39 40 39 38 38 38 40
53 52 51 49 50 51 51 49 48 46 47 43 44 40 39 40 40 39 39 38 39 38
51 50 51 50 49 48 48 47 45 43 43 44 43 41 39 40 40 38 35 34 34 35
MSLP
1008.47 1008.76 1008.97 1009.24 1009.41 1009.61 1009.63 1009.69 1009.95 1010.42 1010.47 1011.23 1012.05 1012.71 1014.01 1013.61 1013.53 1014.39 1015.33 1016.00 1016.60 1016.66
1007.97 1008.23 1008.44 1008.57 1008.71 1008.81 1009.02 1009.27 1009.64 1010.10 1010.49 1011.25 1012.14 1010.08 1012.69 1014.77 1013.51 1014.57 1015.36 1015.81 1016.09 1016.39
1006.90 1007.20 1007.51 1007.88 1008.14 1008.36 1008.73 1009.06 1009.46 1009.80 1010.12 1010.89 1012.04 1012.32 1012.53 1013.41 1013.98 1014.42 1015.02 1015.51 1015.95 1016.05
1006.22 1006.52 1006.82 1007.11 1007.29 1007.59 1008.18 1008.52 1009.29 1009.47 1010.10 1010.78 1011.58 1012.13 1012.20 1013.12 1013.74 1014.23 1014.69 1015.15 1015.58 1015.85
1005.41 1005.86 1006.27 1006.44 1006.78 1007.22 1007.74 1008.43 1008.72 1009.46 1009.70 1010.38 1011.26 1011.63 1011.99 1012.93 1013.39 1013.96 1014.45 1014.76 1015.00 1015.08
1004.66 1005.23 1005.54 1005.72 1005.66 1006.06 1006.86 1007.75 1008.48 1009.04 1009.90 1010.22 1010.72 1011.09 1011.64 1012.27 1013.01 1013.56 1013.90 1014.06 1014.47 1014.90
1003.79 1004.18 1004.48 1004.84 1005.23 1005.46 1005.95 1006.85 1007.90 1008.21 1008.84 1009.56 1010.27 1010.97 1011.55 1012.10 1012.85 1013.49 1013.37 1013.01 1014.23 1014.61
1002.76 1003.31 1003.98 1004.63 1004.99 1005.12 1005.46 1006.07 1007.00 1007.71 1008.63 1009.43 1010.12 1010.92 1011.70 1012.32 1012.82 1012.87 1012.00 1013.33 1014.01 1014.40
1002.37 1002.88 1003.30 1003.90 1004.45 1004.90 1005.54 1006.39 1007.09 1008.04 1008.93 1009.67 1010.27 1010.63 1011.38 1011.91 1012.48 1012.25 1012.14 1013.33 1013.56 1013.72
1001.96 1002.61 1003.18 1003.85 1004.29 1004.79 1005.48 1006.15 1006.85 1007.69 1008.39 1009.24 1010.04 1010.77 1011.30 1011.61 1011.95 1011.78 1012.36 1012.96 1013.28 1013.65
1001.77 1002.38 1003.05 1003.53 1003.95 1004.75 1005.62 1006.27 1006.91 1007.39 1007.95 1009.01 1010.00 1010.51 1011.12 1011.42 1011.49 1011.67 1012.26 1012.73 1013.10 1013.43
1001.16 1001.99 1002.78 1003.32 1003.84 1004.58 1005.20 1006.08 1006.82 1007.39 1008.10 1009.02 1009.87 1010.36 1010.95 1011.39 1011.38 1011.94 1012.26 1012.56 1013.14 1013.38
1001.07 1001.82 1002.39 1002.74 1003.46 1004.09 1004.67 1005.52 1006.05 1006.86 1007.78 1008.32 1009.31 1010.28 1010.89 1010.93 1011.82 1012.31 1012.55 1012.60 1012.80 1012.93
1002.37 1002.59 1002.82 1003.05 1003.69 1004.32 1005.16 1006.28 1007.23 1008.01 1008.52 1008.80 1009.38 1009.71 1010.05 1010.99 1011.59 1011.93 1012.24 1012.27 1012.46 1012.38
Wind_Speed
10 7 8 9 8 8 9 9 10 11 11 9 9 8 5 3 4 6 4 5 5 3
8 10 9 11 10 9 9 5 7 10 8 6 2 11 9 5 6 5 4 6 5 3
11 11 10 7 9 8 7 7 9 9 9 11 7 5 8 5 4 6 3 2 3 4
9 9 8 9 9 9 7 9 10 10 8 9 9 7 7 7 6 5 2 2 4 5
9 8 9 9 7 7 8 7 8 6 9 10 8 8 8 6 5 3 3 2 5 6
10 10 12 10 11 12 10 9 9 11 12 9 9 8 7 7 5 4 5 5 4 5
12 13 12 11 10 11 12 12 10 12 11 10 8 7 7 6 5 5 6 4 4 5
12 10 8 9 10 12 13 13 13 11 9 9 8 6 7 6 6 8 5 3 4 4
9 10 12 11 12 11 11 11 11 10 11 9 5 11 10 8 5 3 4 3 3 3
9 10 11 10 11 11 12 11 11 11 11 9 7 11 10 9 4 4 3 3 4 3
8 9 9 11 12 10 10 12 12 11 9 8 6 12 11 8 4 4 3 4 5 5
11 10 10 11 11 11 12 11 10 8 10 9 7 9 9 5 4 3 3 2 4 6
8 11 12 12 13 11 11 11 9 10 8 8 7 9 10 7 3 2 2 4 6 8
2 4 7 9 7 10 10 9 7 7 5 7 6 6 9 8 4 3 3 4 4 3
Wind_Direction
210 209 210 205 208 216 218 216 207 206 191 182 159 165 205 188 136 137 169 189 216 216
204 212 215 219 214 213 211 188 183 192 185 143 147 167 154 214 115 136 170 216 229 230
204 208 213 213 215 203 199 185 174 178 148 145 180 190 154 129 148 167 204 224 246 241
209 209 204 207 206 190 182 178 191 172 166 166 158 178 133 157 164 177 212 242 263 270
208 203 212 212 189 165 177 180 171 168 174 157 158 157 150 153 137 166 206 243 235 246
200 204 212 199 178 172 162 171 176 174 176 156 160 144 139 143 154 186 192 197 212 242
200 203 202 200 187 170 168 160 165 160 155 154 142 136 128 139 164 197 190 108 236 244
206 196 183 180 178 169 166 163 160 149 138 134 131 136 144 157 188 211 91 232 248 265
192 182 189 179 173 160 153 155 147 141 142 137 138 150 160 170 198 166 106 237 255 276
185 187 185 173 161 164 162 150 151 147 142 147 144 152 166 174 170 127 158 209 241 287
176 181 167 168 165 155 157 157 155 152 145 134 152 169 170 161 141 118 217 230 227 228
176 165 164 164 156 156 153 153 153 145 137 150 172 154 135 152 118 186 224 251 256 246
159 166 170 161 161 161 159 150 144 145 160 150 122 150 158 136 149 208 269 266 247 252
69 159 160 150 146 140 134 133 131 123 128 133 153 151 146 173 175 192 231 243 264 268